This is the latest recevied weather packets stored in our database for station/object WX5HOT. If no packets are shown the sender has not sent any weather packets the latest 10 day(s).
| Time | Temp. | Humidity | Pressure | Rain* | Wind** | Luminosity | Snow |
|---|---|---|---|---|---|---|---|
| 1777303215 | 20.56° C | 99% | 1060.1 hPa | 0 mm | - | 97 W/m² | - |
| 1777302914 | 20.56° C | 99% | 1060.3 hPa | 0 mm | - | 100 W/m² | - |
| 1777302610 | 20.56° C | 99% | 1060.4 hPa | 0 mm | - | 192 W/m² | - |
| 1777302309 | 20° C | 99% | 1060.1 hPa | 0 mm | - | 63 W/m² | - |
| 1777302006 | 20° C | 99% | 1060.1 hPa | 0 mm | - | 154 W/m² | - |
| 1777301704 | 20° C | 99% | 1060.1 hPa | 0 mm | - | 104 W/m² | - |
| 1777301401 | 20° C | 99% | 1059.9 hPa | 0 mm | - | 75 W/m² | - |
| 1777301097 | 20° C | 99% | 1059.8 hPa | 0 mm | - | 161 W/m² | - |
| 1777300794 | 20° C | 99% | 1059.9 hPa | 0 mm | - | 101 W/m² | - |
| 1777300493 | 20° C | 99% | 1059.7 hPa | 0 mm | - | 115 W/m² | - |
| 1777300190 | 20° C | 99% | 1059.6 hPa | 0 mm | - | 193 W/m² | - |
| 1777299886 | 20° C | 99% | 1059.9 hPa | 0 mm | - | 70 W/m² | - |
| 1777299584 | 20° C | 99% | 1059.7 hPa | 0 mm | - | 104 W/m² | - |
| 1777299281 | 20° C | 99% | 1060.1 hPa | 0 mm | - | 85 W/m² | - |
| 1777298978 | 20° C | 99% | 1060.1 hPa | 0 mm | - | 97 W/m² | - |
| 1777298675 | 20° C | 99% | 1060.4 hPa | 0 mm | - | 70 W/m² | - |
| 1777298371 | 20° C | 99% | 1060.5 hPa | 0 mm | - | 25 W/m² | - |
| 1777298068 | 20° C | 99% | 1060.2 hPa | 0 mm | - | 57 W/m² | - |
| 1777297767 | 20° C | 99% | 1060.3 hPa | 0 mm | - | 34 W/m² | - |
| 1777297466 | 20° C | 99% | 1060.3 hPa | 0 mm | - | 24 W/m² | - |
| 1777297163 | 20° C | 99% | 1060.4 hPa | 0 mm | - | 18 W/m² | - |
| 1777296860 | 20° C | 99% | 1060.7 hPa | 0 mm | - | 32 W/m² | - |
| 1777296555 | 20° C | 99% | 1060.6 hPa | 0 mm | - | 19 W/m² | - |
| 1777296221 | 20° C | 99% | 1060.5 hPa | 0 mm | - | 13 W/m² | - |
| 1777295917 | 20° C | 99% | 1060.4 hPa | 0 mm | - | 15 W/m² | - |
* Rain latest hour (hover to see other rain measurements)
** Current wind speed in m/s (hover to see current wind gust speed)